sat.trackr.live / text

‹ back to catalog

STARLINK-1329

NORAD 45531 · 2020-025A

PAYLOAD ACTIVE UNKNOWN

§ Identity

Operator
Country
US
Launch date
2020-04-22
Launch site
AFETR
Launch vehicle
Mass (kg)
RCS (m²)

Purposes: comms

External: N2YO · Heavens-Above · Gunter

§ Orbital elements

Epoch: 2026-09-16T00:00:02.000160Z

Period
90.33 min
Inclination
53.0312°
Eccentricity
0.0004433
Mean motion
15.94082406 rev/d
Perigee alt
287.9 km
Apogee alt
293.8 km
Semi-major
6,669.0 km
B*
5.0476e-4
RAAN
213.4729°
Arg perigee
90.2331°
Mean anomaly
90.8331°
Rev number
604

§ Raw data

STARLINK-13291 45531U 20025A   26259.00002315  .00188237  24730-4  50476-3 0  99962 45531  53.0312 213.4729 0004433  90.2331  90.8331 15.94082406  6047

JSON: /api/v1/satellites/45531 · /tle

For live sub-satellite position, see the globe view (requires WebGL).

§ Visibility from observer

Set your observer location to see the next 7 days of passes ≥ 10°. The values pass through the URL so the page stays shareable.

No JS? Fill the form by hand. The geolocation button needs JavaScript.